This demonstration page uses our WeatherBlox Daily Observations layout. Learn more.

36.19886, -115.1175

Hourly Observations for June 25, 2018

Temp ( °F °C ) Dew Point ( °F °C ) Humidity (%) Winds ( mph kmh ) Pressure ( in mb ) Visibility ( mi km ) Precip ( " mm )
12:53 am 00:53 Clear 87 30.6 37 2.8 17 17 NNW 5 7 29.74 1007 10 16.09344 0 0
1:53 am 01:53 Clear 85 29.4 38 3.3 19 19 N 5 7 29.74 1007 10 16.09344 0 0
2:53 am 02:53 Clear 83 28.3 38 3.3 20 20 NNW 6 9 29.77 1008 10 16.09344 0 0
3:53 am 03:53 Clear 82 27.8 39 3.9 22 22 N 5 7 29.77 1008 10 16.09344 0 0
4:53 am 04:53 Clear 81 27.2 39 3.9 22 22 N 7 11 29.8 1009 10 16.09344 0 0
5:53 am 05:53 Sunny 80 26.7 38 3.3 22 22 NNE 6 9 29.8 1009 10 16.09344 0 0
6:53 am 06:53 Sunny 85 29.4 38 3.3 19 19 NE 8 13 29.83 1010 10 16.09344 0 0
7:53 am 07:53 Sunny 87 30.6 37 2.8 17 17 ESE 9 15 29.83 1010 10 16.09344 0 0
8:53 am 08:53 Sunny 90 32.2 38 3.3 16 16 ESE 8 13 29.85 1011 10 16.09344 0 0
9:53 am 09:53 Sunny 92 33.3 37 2.8 14 14 SSE 9 15 29.85 1011 10 16.09344 0 0
10:53 am 10:53 Sunny 96 35.6 34 1.1 11 11 SSE 8 13 29.85 1011 10 16.09344 0 0
11:53 am 11:53 Sunny 100 37.8 33 0.6 10 10 S 9 15 29.83 1010 10 16.09344 0 0
12:53 pm 12:53 Sunny 103 39.4 32 0 8 8 SSE 13 20 29.8 1009 10 16.09344 0 0
1:53 pm 13:53 Sunny 106 41.1 29 -1.7 7 7 SE 14 22 29.8 1009 10 16.09344 0 0
2:53 pm 14:53 Sunny 107 41.7 26 -3.3 6 6 SSW 13 20 29.77 1008 10 16.09344 0 0
3:53 pm 15:53 Sunny 107 41.7 25 -3.9 5 5 SE 14 22 29.74 1007 10 16.09344 0 0
4:53 pm 16:53 Sunny 106 41.1 27 -2.8 6 6 SE 8 13 29.71 1006 10 16.09344 0 0
5:53 pm 17:53 Sunny 106 41.1 27 -2.8 6 6 SE 15 24 29.71 1006 10 16.09344 0 0
6:53 pm 18:53 Sunny 105 40.6 27 -2.8 6 6 SSE 14 22 29.71 1006 10 16.09344 0 0
7:53 pm 19:53 Sunny 102 38.9 27 -2.8 7 7 SSE 17 28 29.71 1006 10 16.09344 0 0
8:53 pm 20:53 Clear 100 37.8 32 0 9 9 S 14 22 29.74 1007 10 16.09344 0 0
9:53 pm 21:53 Clear 98 36.7 33 0.6 10 10 S 7 11 29.74 1007 10 16.09344 0 0
10:53 pm 22:53 Clear 96 35.6 31 -0.6 10 10 SSW 10 17 29.74 1007 10 16.09344 0 0
11:53 pm 23:53 Clear 93 33.9 32 0 11 11 W 3 6 29.74 1007 10 16.09344 0 0

Powered by AerisWeather